Regional Weather Roundup
Issued by NWS Midland/Odessa, TX

Home | Current Version | Previous Version | Text Only | Print | Product List | Glossary On
Versions: 1 2 3 4 5 6 7 8 9 10 11 12 13 14 15 16 17 18 19 20 21 22 23 24 25 26 27 28 29 30 31 32 33 34 35 36 37 38 39 40 41 42 43 44 45 46 47 48 49 50
000
ASUS44 KMAF 310110
RWRMAF
MIDLAND AREA WEATHER ROUNDUP
NATIONAL WEATHER SERVICE MIDLAND TX
800 PM CDT WED JUL 30 2014

...IN SOUTHWEST TEXAS AND SOUTHEAST NEW MEXICO...

CITY           SKY/WX    TMP DP  RH WIND       PRES   REMARKS
ALPINE         MOCLDY    89  52  28 N6        30.12S
ANDREWS        FAIR      83  62  48 CALM      29.98R
ARTESIA        CLOUDY    90  61  37 NE14      30.00S
BIG SPRING     CLOUDY    87  55  34 SW14      29.93R
CARLSBAD       CLOUDY    91  56  30 NW13      29.96S
DRYDEN           N/A    103  51  17 E17       29.86R HX 100
FORT STOCKTON  PTCLDY    95  50  21 W10       29.94R
GUAD PASS      CLOUDY    82  48  30 NE9       30.16S
HOBBS          CLOUDY    88  63  42 NE22G30   30.03R
MARFA          CLOUDY    82  54  36 W5        30.13S THUNDER
MIDLAND AIRPK  CLOUDY    89  59  37 NE6       29.92F
MIDLAND INTL   CLOUDY    87  62  43 NE13      29.91F
ODESSA           N/A     88  58  36 NE12      29.94R
PECOS          MOCLDY    81  64  55 S8        29.97R THUNDER
PRESIDIO       FAIR     100  52  20 N14       29.90R
SEMINOLE       CLOUDY    89  60  37 NE14G23   30.00R
SNYDER         MOCLDY    89  66  46 NE6       29.92R
WINK           CLOUDY    82  66  58 N3        29.96S
$$
...OTHER STATIONS IN TEXAS...

CITY           SKY/WX    TMP DP  RH WIND       PRES   REMARKS
ABILENE        PTCLDY    92  60  34 S8        29.87S
AMARILLO       CLOUDY    67  61  81 N17       30.18R
AUSTIN         MOCLDY    94  60  32 SE8       29.89S
BROWNSVILLE    MOCLDY    85  77  77 SE18G26   29.92R
CORPUS CHRISTI PTCLDY    86  73  65 SE20      29.92R
DALLAS FTW     PTCLDY    88  69  53 SE10      29.89F
DEL RIO        CLEAR    100  49  17 SE14      29.82S
EL PASO        PTSUNNY   96  48  19 NE8       29.98S
HOUSTON INT    MOCLDY    85  71  63 SE13      29.96R
LUBBOCK        MOCLDY    83  63  50 N22G29    30.04R
SAN ANGELO     CLEAR     98  52  21 S8        29.87S
SAN ANTONIO    MOCLDY    94  58  29 SE10      29.90S
WACO           PTCLDY    90  68  48 SE10      29.89F
WICHITA FALLS  NOT AVBL
$$
...OTHER LOCATIONS IN NEW MEXICO...

CITY           SKY/WX    TMP DP  RH WIND       PRES   REMARKS
ALAMAGORDO     MOSUNNY   95  45  17 NW6       30.00S
ALBUQUERQUE    PTSUNNY   88  50  27 SE9       30.11S
CANNON AFB     PTSUNNY   73  59  61 NE20G30   30.16R
CLOVIS         MOCLDY    73  59  60 NE23G29   30.19
HOLLOMAN AFB   MOSUNNY   97  46  17 S3        29.98S
ROSWELL        CLOUDY    86  65  49 NE9       30.02F
RUIDOSO        MOSUNNY   72  59  64 SE8       30.31R
SANTA FE       PTSUNNY   71  58  63 SE18G25   30.21S
TRUTH OR CONSE CLOUDY    89  53  29 S5        30.05S
TUCUMCARI      CLOUDY    73  57  57 NE22      30.19R
$$


USA.gov is the U.S. government's official web portal to all federal, state and local government web resources and services.